Theta_e
287 287 286 287 287 286 284 285 286 287 287 284 283 283 284 282 281 279 288 293 292 292 291 293 294 295 295 295 296 297 297 297 296 295 295 295 296 296 296 296 297 298 298 300 301 306 311 313 313 313 314 314 314 314 314 314 314 313 314 315 315 315 315 314 314 315 315 315 315 315 315 314 314 314 314 314 313 313 311 310 311 311 310 310 309 309 309
287 287 287 287 286 284 284 284 285 288 289 288 288 287 287 285 282 288 293 290 286 289 291 292 293 295 295 295 295 295 294 293 294 293 293 293 294 294 295 296 296 297 298 299 301 304 306 309 310 312 313 313 314 315 315 315 314 314 315 314 314 313 312 312 313 313 314 314 315 315 315 314 314 313 313 313 312 313 313 312 310 311 310 310 309 310 310
284 287 288 288 285 283 283 284 285 286 286 290 291 291 291 292 291 291 290 288 286 290 293 293 294 295 294 293 292 291 292 293 293 293 292 293 293 293 294 295 296 297 297 298 299 300 300 300 302 303 303 304 304 305 307 309 311 314 315 315 315 315 314 314 314 314 313 313 314 313 313 313 314 315 314 313 312 312 310 310 310 311 311 310 309 309 310
280 284 285 287 287 284 282 283 284 284 284 284 286 286 288 288 288 290 290 287 285 289 292 291 291 291 290 290 291 291 291 292 292 292 292 292 292 293 294 295 296 296 296 297 297 298 299 299 300 300 300 300 301 301 302 303 304 305 305 306 307 309 313 315 315 315 314 314 313 312 312 312 313 313 314 314 313 312 311 311 310 308 308 308 308 309 309
278 285 285 285 285 285 283 280 284 285 286 287 288 287 288 288 291 289 288 287 289 290 291 288 288 289 289 289 290 291 291 292 292 291 291 291 293 293 294 294 294 295 296 296 297 297 297 297 298 299 299 298 298 299 299 300 301 301 301 301 301 302 303 304 308 311 312 312 311 311 311 311 311 312 312 311 310 310 310 310 310 309 308 309 308 306 308
280 284 284 285 283 278 278 286 290 288 286 287 286 284 285 287 289 286 287 286 288 288 288 286 286 287 287 289 291 293 292 291 291 292 292 292 293 293 294 294 294 295 295 296 296 297 297 297 297 297 298 297 297 299 299 299 298 298 298 298 299 299 299 300 300 301 301 301 301 302 303 305 306 307 308 307 307 306 308 308 308 308 309 308 307 307 308
281 282 282 281 277 278 286 291 291 291 290 289 287 287 288 288 288 288 287 286 285 286 286 286 286 286 288 289 289 290 293 293 292 291 292 292 293 293 293 293 294 294 295 295 294 295 295 296 296 296 296 297 297 297 297 297 297 297 297 297 297 298 298 298 299 299 299 298 298 298 298 299 300 299 300 301 303 303 304 305 305 305 305 304 305 305 305
281 281 279 275 276 284 289 291 291 292 292 290 288 287 288 288 288 287 285 285 286 286 287 288 288 288 288 290 290 290 292 294 293 291 291 292 293 292 293 293 293 294 294 294 294 294 296 295 295 295 295 296 296 295 296 296 296 296 296 296 296 296 296 297 297 298 297 297 297 297 297 297 297 297 297 298 298 300 300 300 300 301 301 301 302 304 305
278 277 277 278 284 284 286 285 286 286 284 285 284 282 285 289 289 287 285 286 287 287 288 288 289 291 290 288 287 291 292 293 294 294 293 293 293 293 294 294 294 295 296 295 295 295 295 295 295 295 295 295 295 295 295 295 295 295 295 295 295 296 296 296 297 297 297 297 297 296 296 296 296 296 296 296 296 298 297 297 297 298 298 299 300 300 301
279 278 277 280 280 278 281 286 289 291 290 289 289 286 284 290 290 289 287 286 287 287 289 289 290 291 288 284 285 291 293 294 294 295 295 295 295 295 295 295 295 295 295 295 296 295 295 295 295 296 295 295 295 294 294 294 294 294 294 294 295 295 296 296 297 296 296 296 295 295 295 295 295 296 296 296 296 297 296 295 295 296 297 297 297 298 298
277 277 277 276 275 277 283 285 287 289 290 289 288 283 282 287 290 290 289 288 289 289 289 290 291 290 285 283 285 291 292 293 294 293 294 294 294 294 294 294 294 295 295 295 295 295 294 294 295 296 296 295 295 293 294 293 294 293 293 293 294 294 295 296 296 296 296 296 295 295 294 294 295 294 295 295 295 295 295 295 294 295 297 295 295 295 296
275 275 275 274 277 277 284 286 288 288 289 289 285 275 275 285 290 290 290 289 289 290 291 292 290 288 284 284 287 292 291 293 293 293 293 293 294 294 295 295 295 295 296 295 294 294 293 293 294 294 294 295 295 294 294 293 293 292 293 293 294 294 294 295 295 296 296 295 295 294 293 293 294 294 294 294 294 294 294 294 294 294 294 294 293 293 294
277 278 276 279 280 285 286 286 288 289 289 287 279 274 281 287 290 290 289 289 290 292 291 291 286 289 291 290 291 292 293 293 293 294 295 295 295 294 294 294 295 294 294 294 293 293 294 295 294 294 294 293 293 293 293 292 292 292 293 293 293 293 294 294 294 294 294 295 294 295 295 294 294 294 294 293 293 293 293 293 293 293 292 293 292 293 293
274 273 274 277 278 283 286 288 288 289 288 281 280 285 289 289 289 290 291 291 292 292 291 290 290 290 291 292 293 293 293 293 293 294 294 294 295 295 295 295 294 294 294 293 293 294 294 294 295 294 294 292 292 292 291 291 292 293 293 293 293 292 292 293 293 293 293 293 294 294 294 294 293 293 294 294 293 293 293 293 292 292 292 292 291 291 292
273 272 273 273 274 282 288 286 289 290 284 284 287 288 288 290 289 290 292 293 293 291 290 291 290 290 291 291 292 292 292 293 293 293 292 291 291 291 292 293 294 294 292 292 292 292 293 293 293 293 293 292 291 291 290 290 292 293 293 293 293 292 292 291 292 291 291 292 292 293 293 293 292 292 292 293 293 293 293 292 292 291 291 291 291 291 291
271 272 274 276 282 284 288 286 281 285 288 290 290 288 286 288 290 291 292 292 292 292 291 290 290 291 289 289 289 290 290 290 291 291 291 291 291 291 292 292 292 293 292 291 291 292 292 292 292 292 291 291 291 290 290 291 292 292 291 291 291 291 291 291 291 291 291 291 291 291 292 292 292 291 291 292 292 291 291 291 290 290 290 290 290 290 290
274 275 277 283 285 287 288 288 288 289 291 291 290 290 290 290 290 293 291 290 292 292 291 290 289 288 286 286 287 287 287 287 288 289 289 290 291 291 291 291 292 292 291 291 291 291 291 291 292 291 291 291 290 289 290 291 291 291 291 291 290 289 289 289 290 290 290 290 290 290 290 290 290 290 290 290 290 290 290 290 289 289 289 289 289 289 289
283 284 284 285 284 286 288 290 289 289 290 291 291 290 289 289 291 291 290 291 292 292 291 289 288 288 287 287 286 287 288 288 288 289 289 290 290 291 291 291 291 291 291 291 291 290 290 291 291 291 291 291 290 290 290 291 291 291 291 291 290 290 290 289 289 289 289 289 289 289 289 289 289 289 289 289 289 289 289 288 288 288 288 288 289 288 288
277 275 283 283 284 285 286 287 290 291 291 291 291 291 291 291 291 291 291 291 291 292 291 290 288 288 289 288 288 288 288 288 288 289 289 289 290 290 290 290 291 291 291 290 290 290 290 290 290 290 290 290 290 290 290 290 290 290 290 289 289 288 288 289 288 288 288 288 288 288 288 288 288 289 289 288 288 288 288 287 287 287 287 287 287 288 288
272 277 283 284 284 285 287 288 288 288 289 290 291 292 293 293 293 293 293 293 292 292 290 290 289 289 289 289 288 288 288 287 288 288 288 288 288 288 289 290 290 290 290 290 290 290 289 289 289 289 289 289 288 287 287 287 287 288 288 288 287 286 287 287 288 287 288 286 287 287 287 287 287 287 288 288 288 288 287 287 287 287 287 287 287 287 287
279 280 282 281 283 286 286 288 289 290 290 290 290 291 291 292 291 291 291 292 292 291 290 291 289 288 287 288 288 288 288 288 288 288 289 289 289 289 289 290 290 290 289 289 289 289 289 288 287 287 287 287 286 286 286 286 286 287 287 286 286 285 285 286 287 287 287 286 286 286 286 286 286 286 286 287 287 287 288 288 288 288 287 287 288 287 287
271 275 280 279 276 276 283 286 288 291 292 292 291 291 290 290 290 290 290 289 290 291 291 290 289 287 286 286 286 285 285 285 286 287 287 287 288 289 290 290 289 289 288 287 287 288 287 286 286 286 286 287 286 286 286 286 285 287 287 286 285 285 285 285 286 286 286 285 285 285 285 285 286 287 286 288 288 287 287 289 289 289 289 288 289 288 287
276 279 281 280 279 280 282 285 288 289 292 293 292 291 291 291 291 291 290 289 289 289 289 289 288 286 286 285 285 284 283 283 283 283 285 285 285 286 288 287 286 286 286 287 286 286 286 287 287 287 286 286 286 285 285 285 284 285 286 286 285 284 285 285 285 286 285 285 285 285 285 285 286 286 286 287 288 288 288 289 289 289 289 288 288 288 289
282 282 282 282 282 282 284 284 285 286 287 290 290 290 290 290 290 290 290 289 287 286 286 286 286 286 285 284 285 283 282 283 283 283 283 283 284 284 285 284 285 285 285 285 286 287 287 286 285 285 286 287 286 285 284 284 284 285 286 286 285 284 284 285 286 285 284 284 285 285 285 285 285 286 285 285 287 288 289 289 289 288 288 288 288 288 288
283 285 284 284 284 284 284 284 285 286 288 287 286 286 287 288 288 289 288 287 288 287 286 285 284 285 285 283 284 284 283 283 284 283 285 285 284 285 284 284 284 284 284 283 284 284 284 284 284 285 285 287 285 284 284 284 285 286 285 286 286 285 285 285 285 285 284 285 285 284 284 285 285 285 285 286 286 287 288 289 289 288 288 288 288 288 288
286 286 287 288 288 287 287 287 286 284 285 286 285 285 288 289 287 287 286 286 285 285 285 284 284 283 284 283 282 282 282 283 284 285 284 284 284 285 285 284 284 284 283 283 283 284 284 283 283 284 286 287 285 284 284 284 284 285 285 285 285 286 285 284 285 285 284 284 284 284 284 284 284 284 285 285 285 286 286 287 288 288 288 288 288 288 288
286 287 287 286 285 285 287 287 287 288 286 285 284 284 284 285 286 284 282 282 282 283 284 284 283 283 282 282 283 282 283 282 282 282 282 283 284 284 284 283 283 283 283 283 283 283 284 283 283 283 286 286 283 283 284 283 284 284 284 284 284 284 283 284 284 284 284 284 284 284 284 284 284 284 284 284 284 285 285 285 285 285 286 287 288 288 287
285 284 285 282 281 283 287 290 290 287 286 285 283 283 283 283 284 284 283 282 282 282 282 282 282 282 282 282 283 282 282 282 284 282 283 283 284 283 283 283 283 283 282 282 282 282 283 283 283 283 284 284 283 284 284 283 284 284 283 284 285 284 284 284 284 284 284 284 283 284 284 284 284 284 284 284 284 284 284 284 285 285 285 286 286 286 287
281 281 283 284 285 284 284 282 283 283 283 282 282 281 282 282 281 282 282 282 282 281 282 282 282 282 282 281 281 282 281 282 282 282 284 284 284 283 283 283 283 283 282 282 282 281 282 283 283 284 285 283 283 283 285 285 285 284 285 284 285 285 285 284 284 284 284 283 283 284 283 283 284 284 284 284 284 284 284 284 284 284 284 285 285 286 287
282 282 282 282 282 283 284 283 282 281 281 281 282 281 282 282 282 281 281 281 280 281 281 281 282 282 281 281 281 281 282 282 283 281 281 283 284 283 283 283 284 283 282 282 283 282 283 283 283 285 286 283 283 283 284 285 284 284 285 284 284 285 285 284 284 284 284 284 284 282 283 283 284 284 284 284 283 283 283 283 284 283 284 284 284 284 284
281 282 282 282 283 283 283 283 282 281 281 281 281 281 281 282 282 281 281 280 280 281 280 281 281 281 281 281 281 280 281 280 280 280 281 282 281 279 279 282 285 283 283 282 282 282 282 283 283 285 285 283 283 283 284 285 284 284 284 284 284 283 283 283 282 284 284 284 284 283 284 283 284 283 282 283 283 283 283 283 283 283 283 284 284 284 284
281 281 281 280 280 282 282 281 282 282 281 280 280 281 281 282 281 282 281 280 281 280 280 280 281 282 282 281 281 279 279 276 277 279 279 278 278 275 270 272 280 280 279 280 280 280 281 282 283 285 284 284 284 283 285 285 283 285 286 283 283 283 282 283 283 283 284 283 283 283 281 283 284 283 283 283 283 282 283 283 283 283 283 283 283 284 284
280 280 282 282 281 281 281 280 281 282 281 281 280 281 281 281 282 282 282 282 281 280 280 282 282 281 280 279 278 276 272 273 275 275 276 275 273 271 270 273 277 279 280 280 280 280 281 282 282 282 283 284 283 283 284 284 283 284 283 283 283 283 283 282 282 283 283 283 283 283 283 282 282 283 283 282 282 282 282 282 282 282 282 283 284 284 285
280 280 280 281 282 282 280 281 280 281 281 281 280 280 281 281 281 281 281 281 281 281 281 282 282 280 277 275 272 269 270 275 276 276 272 270 268 267 268 274 277 279 280 280 280 280 281 282 283 283 283 283 283 283 284 283 283 284 283 282 283 283 283 283 282 283 283 283 283 284 284 282 283 283 282 282 283 282 282 282 282 281 282 283 283 284 285
281 281 281 282 283 282 282 282 281 281 281 280 280 280 280 281 281 282 282 282 282 283 283 281 278 275 273 270 270 270 271 277 277 274 272 269 266 265 268 274 278 279 280 281 281 281 282 283 283 283 283 283 283 283 284 284 283 283 282 283 283 283 283 283 283 283 283 284 284 285 285 284 283 283 282 283 283 282 282 282 282 281 282 282 283 284 284
282 282 282 282 282 282 282 281 282 281 281 281 281 280 281 281 280 281 281 282 284 283 281 278 274 274 273 271 271 270 272 274 272 269 268 266 265 267 272 277 279 279 279 281 282 282 282 282 281 281 282 282 282 283 283 283 283 283 283 283 282 282 283 282 283 283 284 284 284 284 284 283 284 284 285 285 284 284 284 284 283 282 282 281 281 283 284
283 283 283 283 282 281 281 281 281 281 281 281 281 281 282 281 281 282 282 282 282 281 280 279 278 277 278 276 277 273 271 272 271 269 268 264 265 269 274 276 275 276 277 279 281 280 280 281 280 281 281 282 283 283 282 282 283 283 283 283 283 282 283 283 283 283 284 283 282 284 284 285 286 286 285 286 285 285 284 284 283 283 282 282 282 282 283
282 282 283 284 283 282 282 283 282 282 281 282 281 280 281 281 281 281 282 282 281 280 279 280 280 280 279 277 274 273 274 269 268 267 266 265 267 272 273 273 276 275 277 279 278 280 281 281 281 281 282 282 282 282 282 282 282 283 284 284 283 282 283 283 283 283 283 283 282 283 283 284 285 286 286 286 285 285 284 284 284 283 282 283 283 283 283
284 282 282 282 282 282 282 282 282 282 283 284 282 281 280 280 281 281 281 281 280 280 280 279 279 279 279 278 278 278 277 275 271 268 268 269 270 273 276 277 278 278 279 279 279 280 281 281 281 281 282 282 283 282 282 281 282 284 284 284 284 283 283 283 283 283 283 283 283 283 283 284 285 285 285 285 285 285 285 285 284 284 284 284 285 284 283
282 282 283 282 283 282 282 283 283 284 283 284 284 283 281 280 280 280 281 281 280 280 281 279 280 280 280 279 279 280 280 279 276 273 272 271 272 273 276 278 280 280 281 281 281 281 281 281 281 282 281 282 283 283 282 282 282 283 284 284 284 283 282 283 283 283 282 282 283 282 282 282 283 284 285 285 286 285 286 285 285 285 284 285 285 285 285
281 282 282 284 284 283 283 283 284 283 283 283 284 283 281 281 280 280 281 282 281 280 280 280 280 280 280 281 281 281 280 279 278 277 276 276 276 276 276 279 280 280 281 281 281 281 281 281 281 281 281 282 283 281 282 281 281 283 284 284 284 284 283 282 283 283 283 283 282 283 283 282 282 283 283 284 285 285 285 285 285 285 284 284 284 284 284
281 281 282 283 282 282 282 282 283 284 284 284 284 284 284 283 283 283 282 281 280 280 280 281 281 282 282 281 280 280 280 279 278 278 277 278 279 276 276 279 281 280 280 281 281 281 281 281 281 281 281 282 282 280 280 280 281 281 283 284 284 284 283 283 283 283 282 282 282 282 281 281 282 281 281 282 283 283 284 283 284 284 284 284 284 284 284
280 281 282 282 282 281 282 283 283 283 284 283 284 285 285 283 283 282 281 280 280 280 281 281 281 281 280 280 280 280 281 280 279 279 278 279 279 279 281 281 280 280 281 280 281 281 281 282 282 282 281 281 281 280 280 281 281 281 282 283 284 284 284 283 283 283 283 283 282 282 281 279 281 281 281 281 282 282 282 282 283 283 284 284 284 284 284
280 280 281 281 282 282 281 282 281 282 283 284 282 282 283 282 281 281 281 281 280 280 281 281 280 280 280 280 280 280 282 281 280 279 279 280 280 280 280 281 281 281 282 281 282 282 282 283 284 283 281 280 280 280 281 281 281 281 282 283 284 284 284 283 283 283 283 283 283 283 282 281 281 281 281 280 280 281 281 282 282 283 284 284 284 284 283
281 280 280 281 281 281 281 281 282 284 283 282 281 283 283 282 282 282 282 282 282 281 281 281 281 281 281 280 281 282 282 281 281 280 280 280 279 281 280 281 282 281 280 282 283 283 283 283 282 281 281 280 280 280 281 280 281 281 281 283 284 284 284 284 284 284 283 283 282 282 282 282 282 281 281 279 279 280 280 282 283 284 284 284 284 284 283
281 281 281 281 281 282 282 282 282 282 283 283 283 283 282 282 282 281 281 282 282 282 282 282 281 281 281 281 281 281 281 281 281 281 282 282 282 281 279 280 280 281 281 281 281 282 283 281 280 280 280 280 280 281 280 280 280 281 282 283 284 284 285 284 284 284 283 283 282 282 282 282 282 282 282 281 281 280 280 281 281 283 284 284 284 284 284
281 281 281 281 282 281 281 281 281 283 283 283 283 283 282 281 282 281 281 281 282 281 281 281 282 282 282 282 282 281 281 281 281 280 281 282 281 281 279 280 281 281 281 281 281 282 281 281 280 280 280 280 280 280 280 280 281 281 282 283 284 284 284 284 284 284 283 283 282 282 282 282 282 282 282 281 281 281 281 281 282 283 284 284 284 284 284
282 282 282 281 282 282 281 282 283 282 282 283 283 283 282 281 281 282 282 282 283 282 282 282 282 282 281 282 282 282 282 283 280 282 280 281 282 282 281 280 280 281 281 281 281 280 280 280 280 280 280 280 281 280 280 281 281 282 283 283 284 284 284 284 283 283 283 282 282 283 282 282 282 282 282 282 282 282 282 283 284 284 285 285 284 284 284
281 282 282 281 280 281 283 283 282 282 282 282 282 282 282 283 283 283 283 282 282 283 283 284 284 284 282 282 282 282 282 281 283 284 282 280 281 280 281 281 281 281 280 280 281 280 280 280 280 280 280 281 280 280 280 281 282 282 282 283 283 284 283 284 284 283 283 283 283 283 283 283 283 283 282 282 282 282 282 283 284 284 284 285 285 284 284
281 282 281 283 282 282 282 281 281 282 282 282 282 282 282 282 283 284 283 282 282 282 282 282 282 282 282 281 281 282 282 282 281 282 282 281 280 280 280 280 280 280 280 280 280 280 280 280 280 280 279 278 280 279 280 282 282 282 282 283 282 282 282 282 282 282 283 282 283 282 282 282 282 281 281 281 281 282 282 282 282 283 284 284 284 284 284
282 282 282 282 281 281 281 282 282 282 283 282 282 282 281 282 282 283 282 282 282 282 282 283 282 283 282 282 281 282 281 281 281 281 281 281 280 280 280 279 280 280 280 279 279 280 278 279 278 279 279 280 279 280 279 281 281 281 281 281 282 281 282 282 282 283 283 283 282 283 282 281 281 282 281 281 281 281 282 282 282 283 284 284 284 285 285
281 281 280 280 280 280 280 280 280 280 281 281 281 281 281 282 282 282 282 282 282 283 282 282 283 284 283 282 282 282 282 281 281 281 281 281 280 279 279 280 279 279 280 279 279 280 278 278 279 280 279 278 278 278 280 281 280 280 280 280 281 281 281 281 282 282 282 283 282 282 282 281 281 281 280 280 280 280 280 280 281 281 282 283 284 284 284
Wind_Speed
4 4 3 3 6 4 4 5 8 11 10 7 4 1 0 2 1 5 5 7 6 5 7 7 8 8 9 9 10 9 9 9 10 10 11 12 13 13 14 11 11 12 11 11 10 6 7 8 8 6 5 6 7 6 6 6 6 5 3 5 5 5 5 4 4 4 4 3 4 7 7 7 7 7 6 5 3 3 2 1 1 3 3 3 3 2 1
6 7 6 6 6 2 4 9 9 9 9 9 6 5 3 2 1 4 9 9 7 4 7 7 7 6 8 9 7 9 11 10 9 11 11 11 11 12 12 12 10 10 11 11 9 7 10 8 8 7 6 7 7 7 7 7 7 6 6 7 7 7 7 6 6 6 6 4 4 4 6 5 6 5 3 2 1 2 2 2 1 0 2 2 3 3 3
3 5 5 6 6 4 5 6 10 10 8 6 8 5 5 6 8 8 9 9 5 4 4 6 6 6 7 11 12 10 9 9 9 10 10 9 10 10 10 11 8 9 11 12 10 10 12 11 10 9 9 10 10 10 9 9 9 8 9 9 8 7 7 7 7 7 7 6 6 6 7 5 4 5 4 4 4 4 5 3 2 1 1 2 3 3 3
1 3 6 4 3 4 6 8 14 12 9 6 5 3 4 2 5 7 8 4 2 3 6 8 9 10 12 13 10 9 8 8 8 10 10 10 9 9 9 9 9 11 13 13 12 11 11 11 11 10 10 11 12 10 10 10 10 10 11 11 11 9 8 7 7 8 7 6 7 6 6 5 5 6 6 6 6 4 2 2 4 4 3 1 1 0 1
1 3 2 3 2 2 2 7 8 10 5 2 1 3 6 5 2 7 7 2 3 6 5 9 9 11 12 12 10 9 11 10 9 9 10 9 9 11 9 10 10 10 12 12 11 11 11 11 12 11 10 13 11 9 11 9 10 12 12 12 12 12 11 11 9 8 8 8 8 7 6 6 6 7 8 8 6 5 5 3 5 6 4 4 4 3 2
1 3 4 3 2 2 2 1 3 4 4 5 4 4 5 8 4 3 4 5 6 7 7 10 10 12 11 10 10 9 6 8 10 11 9 9 9 10 11 10 11 10 10 9 9 10 11 11 11 10 12 13 10 9 10 11 13 11 12 12 12 12 12 11 10 8 9 10 10 9 8 8 8 8 8 7 5 4 4 5 6 5 4 5 4 5 4
1 1 2 3 3 2 2 1 4 2 6 9 10 7 7 7 7 11 11 9 10 7 8 9 10 12 12 12 12 10 10 8 8 9 10 10 10 11 10 10 11 11 10 10 11 12 11 11 10 11 12 10 9 11 11 13 12 13 12 12 12 12 13 11 11 11 11 10 11 9 9 9 10 10 8 7 8 7 6 6 7 6 6 6 6 5 5
2 1 1 2 1 1 3 2 4 3 1 0 1 5 8 7 6 8 10 9 10 10 10 9 8 12 11 12 11 9 8 8 7 9 10 10 10 11 9 11 11 11 10 10 11 11 9 10 11 11 11 9 12 12 11 12 12 12 12 12 11 11 12 11 10 10 11 12 11 10 9 10 11 10 9 8 8 7 7 7 7 6 7 7 7 7 6
2 1 3 1 0 1 2 2 4 5 3 5 2 2 3 4 2 3 10 10 10 9 8 9 7 8 11 13 10 8 10 9 9 10 10 10 10 10 11 10 10 9 8 9 9 11 11 11 12 11 10 11 10 11 12 10 9 10 13 13 11 11 10 10 9 9 9 11 11 10 9 11 10 9 9 9 8 6 8 7 7 8 7 7 6 7 8
3 4 3 1 1 1 1 0 2 1 3 2 4 0 2 2 6 6 10 12 12 10 9 7 9 6 13 10 5 5 6 7 9 9 9 8 8 9 8 10 9 9 9 8 9 11 12 12 10 9 10 11 11 11 11 10 12 10 10 11 9 9 9 9 9 9 10 10 10 9 9 9 9 8 8 8 8 7 8 7 8 7 5 6 7 8 8
2 2 4 1 1 0 0 7 8 5 3 4 1 0 1 0 6 7 8 10 7 10 10 10 5 2 7 4 2 1 3 4 6 9 8 8 9 9 9 10 10 9 9 10 10 11 12 12 9 8 9 11 12 11 9 9 10 11 10 9 8 8 7 7 7 8 8 9 9 10 9 8 7 8 8 7 5 5 6 6 7 6 7 7 6 7 7
3 3 3 1 0 1 4 8 10 10 5 0 1 2 2 3 6 7 7 10 9 8 6 3 0 2 10 9 6 4 4 4 5 7 8 9 10 10 10 10 10 9 8 11 12 13 12 9 7 8 8 11 12 9 8 7 10 10 8 7 6 7 8 8 8 8 8 8 8 8 8 7 7 6 5 6 7 6 5 5 5 6 5 5 6 6 6
5 5 1 2 1 1 4 7 12 11 4 1 1 2 1 4 6 6 5 7 7 5 4 1 2 3 5 9 9 7 6 8 8 7 8 8 9 9 8 8 8 9 8 9 10 10 8 7 7 7 8 10 10 8 6 8 9 7 7 7 7 8 8 8 8 8 7 7 8 7 6 6 6 6 5 6 5 6 5 5 5 6 7 6 6 6 6
3 1 4 2 1 0 6 11 9 7 2 0 1 2 1 7 8 6 8 9 5 3 2 4 7 9 13 12 9 7 6 6 7 8 8 8 8 7 6 8 9 8 9 9 9 8 7 6 6 6 8 10 8 7 8 9 7 6 6 6 6 7 8 8 8 8 8 7 7 6 6 5 6 6 5 5 5 5 4 5 5 5 6 6 6 6 6
1 4 4 2 2 0 8 15 4 4 2 2 2 3 2 2 6 9 7 5 4 6 7 9 12 12 11 9 8 8 7 7 7 7 7 8 8 7 8 8 6 8 8 8 8 7 6 6 6 5 8 10 8 7 9 7 5 5 5 5 6 7 7 7 7 7 7 7 6 5 5 5 6 7 5 5 6 5 5 5 5 5 5 5 5 6 6
2 3 3 1 2 5 7 5 2 5 3 4 4 2 1 2 3 5 4 3 5 8 11 11 9 9 10 8 8 9 7 7 7 7 6 6 7 7 6 6 6 7 7 6 6 6 6 5 5 4 5 8 7 8 9 4 5 5 6 5 5 6 6 6 6 6 6 6 6 5 5 5 5 5 5 4 4 4 5 5 5 5 5 5 5 5 6
2 1 1 1 1 3 4 1 2 3 5 4 2 2 3 5 2 3 6 6 7 10 11 11 10 9 5 6 6 8 6 6 7 7 6 6 7 7 7 6 5 5 7 7 6 7 5 5 4 4 4 8 9 9 4 3 5 5 5 6 6 6 6 6 6 5 6 6 5 5 5 5 5 5 5 5 5 4 4 3 3 3 3 3 3 3 3
1 3 2 0 2 4 4 4 3 4 6 7 7 6 6 6 5 5 7 7 7 7 7 11 7 8 8 8 7 7 7 8 6 6 7 6 6 6 6 5 4 5 5 5 7 7 6 4 4 4 5 6 10 5 3 4 5 5 6 7 7 7 6 6 6 5 6 5 5 5 5 5 5 4 4 5 4 4 4 4 3 3 4 4 4 4 4
3 2 4 5 5 4 5 4 7 7 7 7 7 9 8 7 8 10 9 7 7 7 6 8 10 8 7 8 7 7 8 8 7 6 7 6 6 7 6 4 4 4 5 6 6 6 5 3 4 4 5 5 5 3 4 4 5 6 7 7 6 6 6 5 5 5 5 5 5 5 5 5 5 5 5 5 4 4 4 4 4 4 4 4 5 5 5
3 1 1 3 3 1 3 4 6 8 8 9 8 7 8 9 9 10 9 9 9 5 7 6 8 7 5 8 7 7 6 6 6 6 6 6 4 3 4 4 4 5 5 5 5 5 4 2 3 3 4 4 3 3 3 3 3 5 5 5 5 4 4 4 4 4 5 6 6 6 6 5 6 6 6 5 6 6 6 6 5 5 5 5 6 6 6
1 1 1 2 4 7 6 6 5 5 5 8 9 9 11 12 13 12 11 9 7 6 6 5 7 8 6 5 6 6 5 5 4 4 4 4 5 5 6 4 5 6 4 4 3 3 2 1 2 3 3 3 3 3 3 3 3 5 5 4 4 5 4 5 5 4 4 4 4 5 5 5 5 2 2 5 4 4 4 2 1 3 4 5 5 5 5
0 2 2 2 2 1 2 3 3 4 5 8 9 8 9 10 11 10 9 7 6 5 3 5 7 8 5 4 6 6 4 4 4 4 4 4 4 3 3 3 5 5 5 5 4 3 1 1 1 2 2 2 3 3 3 3 2 4 4 4 5 4 4 4 3 4 4 5 5 5 5 5 6 6 6 7 3 2 4 6 6 4 2 3 5 5 5
1 3 4 2 2 4 1 1 2 2 2 5 9 9 8 6 8 10 11 8 5 4 4 2 8 8 7 5 5 5 3 2 2 3 4 5 4 3 3 4 4 6 5 5 5 4 1 1 1 0 0 0 1 1 0 0 2 4 4 4 3 3 3 3 2 3 4 5 5 5 5 5 6 5 6 7 9 9 6 7 8 8 9 10 10 8 5
1 1 2 3 1 2 2 0 2 2 3 3 6 4 4 6 7 6 7 8 9 5 4 3 4 9 6 4 7 6 2 1 3 2 2 2 2 2 3 4 4 5 4 4 5 4 1 2 3 2 1 0 1 1 1 3 3 4 4 5 4 3 3 2 3 3 4 3 4 5 5 5 4 5 5 6 6 4 4 7 7 8 8 9 9 8 9
2 1 3 1 3 3 2 2 0 2 2 3 5 4 5 6 3 5 9 5 6 11 8 5 1 2 8 4 5 6 4 1 1 4 4 4 3 4 4 4 4 4 4 3 1 0 1 3 3 2 2 0 1 1 1 2 3 4 4 5 5 4 4 3 4 4 5 5 5 4 5 5 5 5 5 5 7 8 1 2 6 8 8 8 8 9 10
6 6 5 4 4 3 0 2 4 3 2 1 3 1 1 3 4 4 5 6 4 4 8 6 5 1 4 7 4 4 4 3 1 1 3 4 4 4 4 4 3 3 3 3 1 0 2 4 3 3 2 0 2 2 1 2 3 3 4 4 4 4 3 3 4 5 5 4 4 4 4 3 4 4 4 4 4 5 8 9 7 4 3 5 8 9 9
4 6 8 8 5 2 2 3 1 2 2 1 4 4 3 4 5 5 4 3 3 3 5 6 5 4 2 3 4 2 5 3 3 3 3 2 3 3 3 3 3 3 3 3 3 3 2 3 3 3 1 1 2 1 2 2 3 3 3 3 4 4 4 4 4 4 4 4 4 4 4 5 5 5 5 5 4 4 5 5 6 8 8 8 7 8 8
1 1 2 5 3 4 4 3 1 4 3 3 4 5 3 4 5 6 5 4 3 2 2 2 5 6 5 1 5 4 4 4 5 4 4 3 2 2 2 3 4 4 3 4 3 2 2 3 3 3 3 3 2 3 3 3 3 3 2 3 4 4 3 4 5 4 4 4 4 4 4 5 4 4 4 4 5 5 5 4 5 6 7 6 7 8 10
2 2 3 1 3 2 2 4 5 4 3 2 2 3 5 5 3 4 4 4 3 3 2 1 2 1 5 2 3 5 3 3 4 4 5 4 3 3 1 1 3 3 4 3 2 2 2 3 3 3 2 3 3 3 2 2 2 2 2 2 3 4 5 4 4 4 4 3 4 4 4 4 5 5 5 5 5 6 6 6 6 6 5 7 8 9 8
1 1 3 4 3 4 5 3 4 4 4 4 5 3 1 5 5 3 4 2 1 4 1 0 0 1 2 3 2 5 6 6 6 4 3 2 0 0 1 1 1 2 2 2 1 1 3 1 2 3 1 2 3 3 2 2 2 2 1 1 1 2 2 3 4 4 5 5 5 4 5 5 5 5 6 6 6 5 6 6 6 5 7 7 5 5 8
2 2 4 3 4 1 2 1 1 3 2 1 2 4 1 1 3 5 4 2 1 2 2 3 3 1 0 3 4 2 1 1 2 2 1 1 0 0 1 1 0 2 3 3 1 1 1 1 0 1 0 1 2 2 2 2 2 2 1 1 0 2 2 4 4 4 4 5 5 6 6 5 5 5 5 6 6 6 6 5 5 5 5 5 6 7 8
5 5 6 3 1 1 0 1 1 1 2 2 3 5 6 6 5 6 5 4 5 4 4 3 3 5 5 2 0 0 0 0 0 1 1 1 1 1 1 1 1 2 2 1 2 2 2 1 1 1 0 0 1 1 1 1 1 0 0 2 2 2 3 4 4 4 5 4 4 4 4 5 5 5 5 6 5 5 5 4 5 5 5 6 6 6 7
5 2 1 1 1 1 1 1 3 4 4 6 6 2 2 2 1 4 5 5 4 3 4 5 5 4 1 1 1 1 1 1 0 0 1 2 3 3 2 2 2 2 2 3 3 3 3 4 4 2 2 0 0 0 0 1 1 1 1 3 2 2 3 4 4 4 5 4 3 3 3 3 3 4 4 4 5 4 4 3 3 4 4 5 6 6 6
4 4 5 6 6 5 2 3 3 4 4 2 3 4 4 4 4 4 4 4 4 4 5 7 6 2 2 2 2 2 3 1 2 4 5 5 5 5 4 2 3 4 4 3 3 3 4 6 5 5 3 1 0 0 1 2 1 1 2 3 3 3 4 3 4 5 4 3 3 3 3 2 4 4 4 5 4 4 4 3 5 5 4 6 6 6 8
2 2 1 2 1 1 1 1 3 4 5 5 4 3 4 4 4 5 5 6 7 9 7 4 2 2 3 3 3 2 3 5 7 5 7 4 4 4 3 3 3 2 3 4 4 5 6 5 4 4 4 2 1 1 1 1 2 2 2 4 4 4 3 3 5 4 3 2 2 3 4 4 4 4 3 4 4 3 4 4 5 5 5 5 6 6 7
1 2 1 1 2 3 2 1 1 2 3 4 5 5 5 4 4 4 6 8 7 4 3 3 3 3 3 3 3 4 6 7 8 8 8 8 4 2 1 2 2 3 3 6 5 6 6 4 6 6 5 3 2 1 2 2 3 3 3 4 5 4 3 4 4 4 3 2 3 4 3 2 3 4 4 4 4 4 4 5 4 5 5 4 4 6 5
1 2 1 0 2 3 3 2 3 3 3 4 2 1 1 3 7 6 5 4 3 4 4 4 3 3 7 8 6 4 4 5 5 5 3 1 1 2 2 1 1 3 3 4 5 1 1 3 4 6 6 3 3 2 2 6 4 3 3 5 5 4 4 5 4 4 4 3 3 3 3 4 4 4 4 4 4 4 5 5 5 4 4 4 4 4 5
1 1 2 2 3 4 3 2 2 3 2 0 2 2 4 4 4 4 5 4 4 4 4 5 5 3 1 1 2 5 6 5 5 4 3 3 3 2 2 2 5 3 4 6 3 0 0 2 3 4 3 3 3 3 4 6 6 5 4 5 5 4 4 4 4 3 3 3 3 4 4 4 3 4 4 4 4 4 4 4 4 4 3 3 3 3 3
1 1 0 0 1 3 3 2 1 2 2 1 3 3 3 3 3 3 4 5 3 4 4 4 2 2 3 3 5 5 6 5 4 3 3 4 3 3 6 6 6 7 7 3 2 3 2 1 1 3 2 2 3 3 3 5 6 4 4 5 5 4 4 4 5 3 1 2 3 3 4 3 3 3 3 3 3 4 4 4 4 4 4 4 4 3 3
1 1 0 1 1 2 2 2 1 1 2 3 3 4 2 2 3 4 4 4 4 5 5 4 4 5 5 5 5 6 5 2 3 3 3 3 2 3 5 7 8 8 8 7 5 5 4 4 3 4 3 2 4 5 3 5 6 5 5 4 5 4 4 4 4 4 3 3 3 2 3 3 3 3 3 3 3 3 3 3 4 4 4 4 4 4 4
4 2 3 2 2 0 1 0 0 1 0 1 3 3 3 3 3 3 4 6 4 4 5 6 6 5 6 7 7 6 2 2 3 4 4 4 2 3 3 7 5 3 4 5 6 5 4 4 3 4 4 4 4 4 5 5 5 5 5 4 4 5 5 4 4 5 5 4 4 3 3 2 3 4 3 3 3 2 2 3 3 4 3 3 4 4 4
4 3 3 3 3 1 2 1 0 1 1 1 1 1 3 5 5 5 4 2 3 4 4 5 7 8 5 4 4 3 4 3 3 4 5 6 5 4 2 6 4 3 4 5 5 5 4 3 4 4 4 4 5 6 6 5 4 4 5 5 5 5 5 5 4 5 4 4 4 4 3 3 3 2 2 3 3 3 2 3 3 3 4 3 4 3 3
4 4 4 4 3 3 3 3 3 2 1 1 1 1 1 3 3 2 2 3 4 4 5 5 5 4 4 3 3 4 5 3 3 3 4 6 6 5 7 6 2 2 3 2 3 4 4 4 4 5 5 6 5 6 6 4 4 4 4 4 5 5 5 5 5 5 5 5 4 4 4 2 2 2 2 2 2 2 2 2 2 3 3 3 3 3 4
3 3 3 4 4 3 2 3 3 2 3 4 3 2 1 1 3 3 4 4 4 4 5 4 4 4 4 3 3 5 6 5 5 4 3 6 5 6 9 9 8 5 5 3 4 4 4 5 5 6 8 8 7 7 5 4 4 4 5 5 5 5 5 5 4 5 5 5 5 5 5 4 2 2 3 2 2 2 2 1 2 3 3 3 3 3 3
1 2 3 3 4 3 3 3 4 5 4 2 2 2 2 3 3 2 3 4 4 5 4 4 4 5 5 5 6 8 6 4 5 5 2 4 4 7 2 7 8 6 5 6 5 5 4 4 5 7 7 8 7 7 5 4 5 5 5 5 5 6 6 6 6 6 6 5 5 5 5 5 4 4 3 2 3 3 3 3 3 2 3 3 2 3 3
3 1 1 2 3 4 4 3 3 2 2 2 2 3 4 3 4 3 2 3 4 5 6 5 4 5 5 5 5 5 4 4 4 6 7 6 6 4 2 5 4 4 6 6 5 5 5 6 7 7 7 8 7 6 5 4 4 4 5 5 6 6 6 6 5 5 6 6 5 5 5 4 4 4 4 3 2 2 2 3 4 3 3 3 2 2 2
2 3 3 3 4 3 3 3 2 1 1 1 2 4 4 3 3 3 2 2 2 3 3 3 4 5 5 5 5 4 5 5 6 6 7 7 6 5 4 4 4 5 5 5 6 6 5 6 6 7 8 8 8 5 5 4 5 5 5 5 5 6 6 6 6 5 5 5 5 5 5 5 4 4 4 3 3 2 2 2 3 2 2 2 2 2 2
1 2 3 3 4 4 2 0 0 2 3 5 4 5 3 2 2 2 2 1 1 2 3 4 5 4 3 4 5 5 5 3 2 7 5 7 6 5 5 6 6 5 6 5 6 6 6 7 7 8 8 8 6 5 4 4 4 5 5 5 6 6 6 6 5 5 5 5 5 5 5 5 5 5 4 4 3 3 3 2 2 2 1 1 1 1 1
2 3 3 3 3 2 1 1 1 2 5 3 2 4 2 1 2 2 2 2 3 4 4 4 4 4 3 3 3 5 4 4 6 6 2 2 5 5 6 5 6 6 5 4 5 5 6 7 7 7 7 6 5 4 4 4 4 5 5 5 5 5 5 5 6 6 6 6 6 6 6 6 6 6 5 5 4 4 5 5 4 3 2 1 1 2 1
1 1 3 4 4 4 3 2 3 5 5 2 5 3 1 1 2 5 4 2 3 3 4 5 6 6 4 3 3 5 4 5 6 7 5 3 2 2 2 3 4 6 6 5 4 4 4 6 6 5 5 4 4 4 4 4 4 5 5 4 5 4 5 6 4 5 6 6 6 6 6 6 6 6 6 4 5 5 4 4 4 5 7 4 2 1 1
2 2 3 3 3 3 3 3 4 4 5 4 4 1 2 3 4 4 4 2 1 3 5 6 6 6 5 4 5 4 4 4 4 5 5 5 3 3 3 2 3 4 4 5 4 4 3 4 4 4 5 5 5 4 3 4 4 5 4 4 4 5 5 6 6 6 6 6 6 6 6 5 6 6 5 5 5 5 5 5 4 4 5 4 4 3 3
0 1 2 2 3 4 3 2 2 2 3 4 3 3 3 3 3 4 5 3 3 4 4 2 6 5 1 2 4 5 3 3 3 2 2 2 2 3 3 4 2 3 4 4 3 4 3 3 4 4 4 4 3 3 4 4 4 3 3 4 4 4 5 5 5 5 5 6 5 5 6 6 6 5 5 5 5 6 5 5 5 4 3 3 4 4 3
Wind_Direction
33 20 23 41 91 79 98 54 26 11 353 10 89 220 220 116 117 204 181 144 128 71 32 39 59 71 74 67 63 59 64 51 47 49 57 58 57 52 48 34 32 33 29 32 12 10 63 63 73 67 57 70 76 55 63 66 62 45 66 87 80 70 65 71 75 86 89 80 84 91 90 95 84 70 67 64 35 14 56 49 107 147 154 159 187 238 254
35 14 14 23 74 102 55 38 28 19 24 28 46 63 23 4 119 128 117 94 67 36 41 45 51 66 86 78 66 64 55 50 52 53 48 47 54 55 54 45 36 38 38 30 16 21 58 51 39 51 52 57 66 67 65 66 64 57 66 67 72 70 69 69 70 65 67 62 67 66 77 67 90 96 87 89 78 32 19 9 303 139 145 163 193 215 227
1 349 351 30 36 81 77 30 26 20 12 40 35 62 53 49 64 80 101 97 77 34 37 61 46 50 73 67 53 56 54 56 62 67 60 54 56 55 54 52 38 44 48 41 29 45 55 53 52 47 49 51 54 49 48 50 49 52 64 66 67 75 78 82 82 79 77 71 56 60 69 68 84 113 114 98 72 48 36 359 353 39 130 193 222 234 230
330 340 359 352 38 78 83 36 13 1 3 27 350 19 344 317 143 115 98 106 151 114 82 68 47 51 57 61 55 51 55 55 62 67 66 64 54 51 50 47 41 45 48 46 37 39 48 54 55 53 54 53 51 47 50 54 58 58 59 58 54 45 46 61 71 75 81 78 79 73 79 81 80 95 94 89 82 87 89 47 31 42 58 63 69 359 292
274 304 322 343 356 38 353 9 342 331 310 267 320 5 7 356 301 135 159 211 79 130 109 92 62 63 64 58 46 59 59 50 53 63 66 64 60 54 46 50 44 42 46 47 41 41 45 48 55 50 61 61 51 48 58 55 63 63 61 59 58 52 45 45 44 51 61 74 70 66 61 70 74 78 83 76 69 58 47 46 68 65 51 56 35 31 75
208 321 323 334 57 217 225 9 332 343 328 332 62 27 347 351 15 101 59 83 73 64 68 82 85 72 65 65 53 35 47 70 70 63 55 57 59 62 57 47 51 49 52 49 44 49 49 47 52 54 60 67 59 57 61 59 64 61 66 61 63 60 55 47 45 41 54 64 61 52 45 49 52 54 62 64 62 56 53 41 51 50 47 57 50 48 40
156 324 3 58 197 234 139 211 21 349 74 74 81 70 37 52 81 102 90 84 86 84 89 97 99 96 82 66 55 39 34 46 62 69 62 54 56 61 56 52 54 56 53 54 54 50 43 45 48 52 55 56 64 56 56 62 59 65 62 64 61 62 62 54 50 51 54 55 61 53 51 56 64 53 39 44 45 34 47 43 38 33 23 24 24 25 19
72 60 55 139 254 334 360 55 22 351 152 107 227 64 53 45 59 106 101 108 117 116 112 105 103 100 99 77 52 41 38 40 54 66 63 58 52 56 51 62 57 58 53 54 55 57 48 50 52 51 54 46 61 62 58 63 63 62 65 63 57 57 61 53 52 49 61 62 56 53 48 53 52 53 48 38 37 24 43 43 40 39 31 33 27 28 24
145 147 88 161 295 13 31 4 12 11 1 344 16 41 337 48 96 111 127 127 123 121 119 123 124 116 90 71 44 32 40 44 46 56 60 58 59 64 62 57 59 60 57 60 62 63 57 50 50 52 54 51 55 61 60 55 59 61 63 60 54 54 56 53 52 51 50 65 63 55 55 55 49 44 45 37 32 22 44 39 41 38 37 37 29 35 34
109 129 81 56 359 223 60 181 294 349 283 266 257 182 10 60 88 119 134 135 137 134 139 141 138 129 84 69 49 19 43 54 66 57 60 57 59 60 62 63 59 59 61 57 54 63 61 52 44 48 60 64 52 53 55 55 61 55 55 59 55 55 57 52 55 58 61 61 65 58 53 53 53 44 41 40 37 24 45 37 39 27 20 39 38 37 38
49 56 111 141 158 313 108 316 316 310 323 265 166 63 40 21 123 136 140 135 144 147 150 163 180 177 91 121 138 133 58 57 79 87 71 66 63 59 59 63 59 49 56 60 64 64 64 58 43 46 55 69 67 55 45 51 60 63 61 60 54 58 56 56 57 60 64 70 73 71 67 59 55 54 43 40 29 30 36 39 39 24 27 28 29 34 33
49 128 75 110 280 334 329 321 318 320 318 285 110 35 296 212 142 144 144 144 147 163 151 157 295 103 136 163 162 121 108 90 74 86 85 74 65 61 58 53 58 54 50 59 55 55 56 50 42 46 53 63 63 59 44 44 62 60 54 53 56 63 64 60 60 56 55 58 62 68 70 68 58 55 55 54 41 42 36 35 37 32 25 28 30 25 17
49 71 79 44 355 356 344 320 315 311 292 184 81 166 245 172 139 142 150 157 160 153 143 321 92 9 83 110 115 126 130 110 99 93 85 80 79 75 65 67 71 68 59 61 61 58 53 46 43 45 56 62 62 60 53 51 49 44 46 50 51 55 56 58 57 56 54 59 63 63 61 64 68 63 49 49 48 49 40 30 36 32 28 21 21 13 15
39 341 101 142 199 239 330 318 310 287 345 131 260 314 308 151 139 144 162 159 157 120 75 87 89 104 107 119 129 129 118 106 105 99 95 88 77 71 75 78 76 69 65 64 65 60 54 59 58 58 70 78 70 67 62 54 39 34 48 56 58 58 58 58 56 51 51 49 49 50 45 51 62 61 51 50 48 50 43 45 40 33 25 22 17 9 358
48 24 58 28 21 300 21 323 322 21 57 284 286 320 24 118 140 145 160 162 127 105 90 100 111 111 116 120 119 115 121 122 118 114 113 113 110 102 92 83 85 95 85 71 63 58 43 43 42 43 64 71 68 68 66 55 51 56 60 65 67 68 65 60 58 54 50 47 45 45 46 44 50 47 34 39 38 44 47 48 50 42 31 17 17 9 2
118 40 50 90 294 314 331 5 48 319 293 284 292 79 45 60 118 135 122 50 95 110 117 118 110 110 113 105 111 109 107 109 106 103 105 106 106 105 98 100 102 93 88 82 75 59 53 49 48 47 68 85 82 74 61 51 70 72 70 69 71 69 64 60 57 55 53 52 50 47 43 46 53 54 41 36 42 33 32 31 22 22 14 9 15 10 359
91 124 191 294 288 297 312 322 251 277 316 347 341 87 89 120 57 12 86 83 91 113 119 112 114 107 87 105 107 109 112 106 107 110 111 113 111 107 107 105 99 95 100 95 87 70 56 58 50 55 65 85 82 74 56 67 74 77 74 67 66 61 55 48 45 43 46 44 44 45 44 46 52 42 38 32 40 27 36 38 36 28 3 5 13 355 354
54 77 91 16 354 341 351 18 3 16 21 28 43 58 73 41 60 67 96 89 95 98 101 110 95 105 117 103 95 95 96 98 96 104 99 92 93 98 102 98 97 102 95 89 87 84 61 53 61 56 52 68 79 78 68 69 68 70 66 63 58 55 53 51 44 40 44 33 33 30 31 34 43 47 41 29 33 19 31 29 27 28 4 7 1 356 341
49 343 340 17 337 331 346 27 48 47 49 50 60 72 67 71 78 85 79 86 83 80 90 106 116 119 119 114 110 112 114 115 122 122 121 120 128 130 124 131 122 104 99 89 83 81 75 36 57 54 63 56 73 77 58 55 66 64 61 60 58 49 47 46 39 39 44 31 23 20 23 20 26 27 27 29 21 11 15 12 4 10 6 3 353 344 336
99 177 327 319 317 332 355 11 61 62 62 62 58 70 79 82 74 71 74 77 73 76 83 91 99 96 98 109 110 109 117 128 130 131 129 127 101 93 124 138 113 96 91 100 101 94 89 52 67 75 67 59 50 59 44 30 51 71 67 69 72 61 52 54 44 36 36 30 31 23 17 23 20 11 11 17 13 0 354 347 352 354 357 358 348 335 328
332 338 305 358 42 37 17 19 42 62 79 85 74 69 71 72 74 66 53 47 61 65 70 78 88 79 54 74 103 109 116 120 120 121 122 121 128 137 125 126 120 117 111 93 91 94 70 2 37 63 50 30 17 29 17 34 39 64 64 61 62 49 38 45 30 25 34 30 27 21 9 8 1 355 18 348 350 337 318 291 291 317 339 325 320 317 323
359 182 197 152 83 41 22 6 25 70 75 85 85 83 87 95 91 87 86 63 53 61 57 100 103 104 96 87 99 97 106 121 125 117 115 122 119 110 104 103 100 102 105 110 95 79 4 350 3 31 19 355 351 350 6 10 43 75 69 60 53 37 36 43 20 25 19 18 14 10 4 359 359 346 339 344 333 324 306 320 328 289 259 298 302 310 305
344 253 229 142 140 131 201 190 354 13 32 103 106 108 108 101 117 126 120 116 89 67 46 58 113 113 114 115 103 93 94 102 139 152 135 129 125 124 117 108 100 111 121 114 105 91 107 175 177 158 301 319 359 346 304 219 125 119 112 91 80 56 55 38 19 27 21 14 5 359 358 358 357 353 336 335 331 320 312 314 313 309 314 314 314 306 288
316 259 180 145 99 150 138 200 330 347 343 79 92 86 100 126 133 127 123 135 130 115 91 64 101 122 114 125 108 109 92 99 127 126 126 126 135 125 91 109 119 109 100 103 115 133 158 131 153 174 168 269 63 12 107 126 126 115 113 108 100 95 86 51 29 31 24 21 12 3 354 354 354 349 345 334 330 283 288 320 308 302 297 292 290 294 300
149 184 151 142 110 100 131 146 42 12 19 91 111 119 132 124 117 133 124 123 133 133 131 123 90 108 124 133 121 134 140 155 196 161 143 131 131 121 125 109 107 117 128 137 161 256 158 113 119 142 135 98 36 54 75 127 128 105 103 95 88 75 66 43 37 30 23 14 2 9 358 349 348 354 356 355 342 334 325 263 296 298 298 299 310 321 320
122 104 102 108 96 85 182 121 71 53 30 36 98 79 72 112 133 110 117 132 135 129 127 136 129 153 135 131 127 130 100 99 85 88 125 134 130 123 123 135 148 156 149 148 151 342 79 95 122 135 126 332 13 10 61 79 80 92 86 84 96 94 79 61 43 24 21 8 360 352 337 342 345 350 348 341 328 326 329 339 351 333 313 315 317 316 317
110 128 100 56 59 35 20 117 175 130 98 50 121 133 134 116 99 106 94 86 109 129 140 150 139 138 101 105 110 92 119 108 69 65 79 94 118 147 151 131 133 145 137 107 66 24 14 84 84 86 59 324 348 350 60 70 73 62 70 83 76 73 71 57 55 36 14 12 4 346 352 359 359 356 344 337 329 342 343 345 337 335 337 334 331 335 329
57 352 52 137 187 196 201 194 112 95 117 131 141 128 134 114 106 101 98 98 102 83 83 113 122 121 103 99 106 94 84 103 116 126 111 131 162 182 171 156 150 138 109 84 56 18 16 77 74 64 18 340 346 33 53 52 46 54 46 66 62 50 31 36 35 27 13 9 357 356 351 351 348 340 345 353 357 352 343 337 337 335 331 333 320 314 322
331 314 1 17 170 154 62 74 80 82 85 67 75 115 129 114 113 127 151 162 157 121 130 45 10 47 131 158 123 132 140 136 150 170 171 183 192 201 227 190 126 115 109 104 69 41 31 56 78 66 15 334 352 11 38 61 29 45 32 41 55 28 16 14 34 17 3 11 9 3 360 4 4 3 1 358 356 2 357 347 344 341 330 329 343 347 354
312 346 63 75 67 100 107 121 139 137 142 149 146 162 145 129 132 176 176 168 120 150 180 68 59 71 85 129 146 152 163 188 202 209 216 210 235 325 314 264 106 74 83 86 130 130 96 37 94 88 343 317 344 343 355 38 25 55 50 57 90 29 351 2 24 13 12 3 357 3 18 22 14 9 1 360 359 5 354 348 346 346 347 350 355 360 351
53 38 68 70 88 54 130 177 147 158 147 153 140 133 86 106 153 171 194 188 158 173 210 188 198 188 212 202 212 200 338 338 287 259 224 126 82 12 360 340 220 257 256 243 242 252 165 166 258 156 229 293 336 338 352 38 19 48 78 58 42 360 345 20 50 39 26 10 357 3 6 23 18 11 358 359 356 358 352 347 348 351 351 349 354 359 351
78 44 37 32 74 114 349 90 158 175 147 156 136 173 179 163 177 196 200 194 201 191 190 197 203 215 223 230 86 81 344 6 340 277 321 355 332 326 345 357 324 242 219 229 238 249 263 283 265 240 225 226 314 337 6 81 90 77 118 118 77 30 35 53 46 45 51 30 5 8 13 17 7 357 355 8 357 349 344 348 349 351 355 356 357 356 343
98 68 35 352 22 20 318 257 185 224 182 196 210 207 212 240 199 197 197 181 169 195 192 213 223 228 196 129 126 118 121 125 82 20 311 285 286 285 294 310 280 265 252 236 233 237 227 242 249 268 264 229 227 289 185 149 156 189 136 124 106 73 69 56 52 51 57 40 10 11 39 24 334 358 360 347 348 354 348 354 354 360 360 1 357 346 345
158 179 196 199 172 185 209 257 217 224 236 204 187 191 197 212 200 183 180 187 187 189 207 221 225 189 145 154 141 127 127 117 271 260 248 248 263 275 275 246 249 248 252 268 278 270 254 250 259 272 254 218 203 226 166 142 147 146 141 118 94 66 50 43 56 66 63 26 334 10 49 12 3 6 346 350 352 357 3 7 9 7 8 9 359 351 356
208 256 240 213 181 181 177 210 226 219 202 199 209 198 208 192 179 188 186 178 187 207 212 207 172 135 136 130 144 143 159 201 228 236 256 251 255 260 276 268 250 270 292 282 253 251 240 242 245 251 253 208 170 201 160 143 138 135 140 114 100 96 99 70 67 71 69 360 340 27 27 17 13 354 347 352 359 359 15 24 21 20 26 14 355 356 4
111 124 166 132 149 138 127 142 180 199 206 204 202 188 179 188 168 161 181 209 213 197 167 154 132 126 146 162 178 197 211 230 239 244 254 259 257 266 272 244 231 257 272 290 265 239 239 235 239 240 235 183 161 163 153 136 136 146 150 114 107 101 78 74 78 72 60 44 46 25 6 355 360 353 3 12 13 13 27 31 30 30 27 15 359 2 359
90 124 20 332 72 83 117 152 153 148 189 212 198 189 186 170 193 209 211 216 196 182 161 136 132 168 210 215 213 216 224 223 223 223 233 258 221 176 195 204 239 236 256 277 273 275 250 232 252 232 224 169 165 162 163 139 139 159 140 118 107 100 90 84 68 72 60 42 36 17 25 33 26 16 19 20 18 19 27 32 32 32 25 18 13 16 13
356 119 167 148 109 99 96 138 152 128 135 222 241 209 201 208 213 204 207 211 199 171 162 179 197 218 223 149 198 229 243 234 231 236 235 242 210 177 222 204 243 212 235 238 238 215 337 333 295 235 200 175 173 167 166 159 155 156 146 131 120 117 105 103 90 66 60 49 33 37 43 49 26 19 15 21 20 23 28 35 39 37 33 23 23 26 23
52 359 17 8 92 98 91 68 110 138 157 207 272 269 264 250 217 187 216 222 197 154 161 190 175 174 203 203 235 248 250 236 215 212 221 227 213 198 230 225 226 211 217 217 212 227 206 202 302 267 210 180 153 138 140 147 159 162 147 133 128 126 126 120 117 105 87 83 67 51 45 51 47 41 29 24 22 25 33 36 40 41 40 25 24 23 17
306 321 269 352 18 9 24 47 29 120 194 181 195 244 217 179 213 209 225 229 214 179 174 161 167 207 222 223 233 247 253 217 180 184 203 196 188 238 285 285 255 243 237 230 234 246 240 237 267 279 240 186 151 144 137 149 163 156 146 144 147 142 137 141 124 125 161 135 103 94 70 67 64 57 42 32 26 34 19 22 32 34 37 35 35 26 25
277 296 305 305 288 233 224 198 77 318 325 186 202 192 167 161 159 171 217 224 210 178 182 178 186 218 224 221 221 236 226 178 174 180 164 140 182 221 252 277 273 235 222 213 215 225 227 220 215 242 243 185 170 153 147 151 148 151 161 160 157 154 152 163 151 146 163 154 151 134 118 94 84 77 68 49 47 39 28 23 31 34 45 49 40 28 35
278 296 301 305 292 226 228 246 294 37 10 331 311 247 188 166 165 201 208 179 172 186 193 209 211 214 221 218 223 234 243 214 183 180 177 191 207 196 215 262 262 256 215 209 209 204 212 208 209 221 220 189 188 179 163 155 150 151 164 176 183 176 164 172 162 152 155 149 150 138 130 113 111 103 84 82 73 50 42 37 29 36 41 51 58 51 47
289 279 263 254 267 272 237 227 226 245 294 283 265 270 233 188 190 175 157 166 178 186 206 220 232 258 269 237 210 235 250 216 200 207 228 247 230 209 208 238 236 254 195 175 194 186 203 210 202 213 209 193 192 185 166 155 151 159 170 186 190 190 177 177 173 150 144 152 158 150 147 147 136 130 131 124 112 97 84 74 61 46 52 55 53 56 54
294 281 272 271 272 264 262 262 275 279 264 270 274 278 265 220 186 174 190 190 193 195 198 220 225 233 234 220 216 246 257 228 224 206 220 289 299 243 221 237 250 231 207 188 187 205 214 207 207 204 200 200 195 175 167 163 166 171 181 188 195 193 185 176 180 160 159 169 175 173 169 162 152 160 168 162 148 127 118 108 83 68 62 57 54 59 63
281 248 254 252 267 301 273 243 236 241 239 249 281 288 301 322 290 215 179 189 201 206 200 208 212 216 209 200 210 224 234 222 199 158 176 253 288 294 246 212 229 230 215 202 202 205 219 214 214 194 188 194 189 173 167 175 180 181 187 188 195 192 191 184 187 181 175 172 182 176 164 166 169 171 171 170 169 148 138 124 109 94 90 68 54 57 54
305 288 240 264 285 267 260 257 250 227 231 245 277 287 270 245 261 273 221 202 210 211 200 201 203 216 206 212 227 238 254 246 214 207 220 202 194 223 212 182 205 210 209 200 210 208 208 195 193 195 188 182 174 171 186 191 188 181 182 190 193 194 194 190 185 185 177 174 171 172 167 160 157 172 171 170 163 157 144 133 124 110 103 100 75 80 66
288 312 318 305 291 289 293 285 273 222 185 180 242 261 265 259 252 252 239 204 224 267 250 210 208 220 207 201 201 218 248 264 270 234 228 242 248 249 228 215 209 202 193 201 214 212 203 186 188 187 178 175 171 177 185 191 190 189 187 192 193 196 193 187 187 185 180 173 169 167 164 163 164 164 162 156 149 149 147 134 123 124 118 103 90 74 78
251 277 288 293 291 300 326 358 145 209 214 222 229 256 269 281 285 289 299 303 292 290 285 269 257 253 227 215 218 215 208 190 284 290 220 217 227 222 223 222 222 204 202 211 220 232 217 199 185 181 177 174 173 180 185 194 192 190 187 189 188 191 189 188 183 181 179 168 161 156 161 164 167 166 171 170 176 169 165 155 144 128 125 122 118 103 99
234 252 274 285 283 296 302 235 227 246 253 248 247 264 278 271 290 306 280 241 229 249 263 276 278 273 262 243 223 229 224 198 189 239 269 188 221 220 230 216 210 201 197 199 217 227 211 205 193 182 176 175 177 185 191 193 192 194 193 192 193 190 189 190 195 181 176 178 175 174 177 177 179 176 179 183 179 184 177 171 165 151 136 139 115 110 92
265 300 329 337 337 328 307 278 259 245 253 230 243 253 206 177 301 283 259 271 277 288 288 280 276 280 282 280 250 242 225 217 236 258 277 275 272 279 244 203 189 183 184 189 201 209 197 191 186 179 176 181 188 188 190 192 195 196 200 190 186 193 194 188 177 180 184 175 173 175 180 185 184 186 181 178 182 182 192 200 182 165 157 156 150 149 122
2 3 323 298 287 276 261 237 266 294 298 276 270 227 178 192 227 260 280 270 275 296 286 289 288 274 275 275 276 264 237 227 232 231 239 243 211 204 197 209 196 177 176 176 184 193 180 177 185 183 182 188 195 198 195 199 199 192 186 188 191 186 182 181 181 184 187 187 182 181 179 178 178 181 185 186 184 188 186 187 196 185 170 171 168 164 157
237 243 275 287 300 301 292 270 268 268 265 271 270 248 226 222 237 278 291 246 217 239 247 285 302 292 236 255 285 290 284 248 229 231 255 255 204 178 165 160 180 186 171 174 184 177 180 188 186 189 190 194 201 204 202 196 189 189 189 183 183 186 187 188 188 189 189 185 181 180 181 181 176 179 185 187 186 186 186 191 191 198 204 189 171 165 161